Regional Weather Roundup
Issued by NWS

Home | Current Version | Previous Version | Graphics & Text | Print | Product List | Glossary On
Versions: 1 2 3 4 5 6 7 8 9 10 11 12 13 14 15 16 17 18 19 20 21 22 23 24 25 26 27 28 29 30 31 32 33 34 35 36 37 38 39 40 41 42 43 44 45 46 47 48 49 50
000
ASUS43 KLOT 311300
RWRIL

ILLINOIS REGIONAL WEATHER ROUNDUP
NATIONAL WEATHER SERVICE CHICAGO/ROMEOVILLE IL
700 AM CST SAT JAN 31 2015

NOTE: "FAIR" INDICATES FEW OR NO CLOUDS BELOW 12,000 FEET WITH NO
SIGNIFICANT WEATHER AND/OR OBSTRUCTIONS TO VISIBILITY.

* THESE STATIONS ARE NOT UNDER NWS QUALITY CONTROL. THEY ALSO MAY NOT
  REPORT WEATHER SUCH AS PRECIPITATION OR FOG.

ILZ001-002-007-009-015-016-024-311400-
NORTHWEST ILLINOIS

CITY           SKY/WX    TMP DP  RH WIND       PRES   REMARKS
MOLINE         MOCLDY    29  20  69 SW7       30.23R WCI  22
STERLING*      MOCLDY    25  18  74 CALM      30.23S
$$

ILZ003-004-008-010-011-017-018-311400-
NORTH CENTRAL ILLINOIS

CITY           SKY/WX    TMP DP  RH WIND       PRES   REMARKS
ROCKFORD       PTCLDY    22  16  78 S8        30.22F WCI  12
$$

ILZ005-006-012>014-019>023-311400-
NORTHEAST ILLINOIS

CITY           SKY/WX    TMP DP  RH WIND       PRES   REMARKS
CHICAGO-OHARE  MOCLDY    24  18  77 SW8       30.23F WCI  15
CHICAGO-MIDWAY MOCLDY    26  20  77 SW7       30.26S WCI  18
AURORA         CLOUDY    23  18  81 S7        30.25S WCI  15
WAUKEGAN       CLOUDY    26  18  71 SW10      30.20F WCI  16
DUPAGE AIRPORT PTCLDY    19  16  88 S5        30.23F WCI  12
WHEELING       CLOUDY    26  18  71 SW7       30.25F WCI  18
NORTHERLY ISL    N/A     27  20  75 S6          N/A  WCI  21
$$

LMZ740>746-311400-
SOUTHERN LAKE MICHIGAN

STATION/POSITION SKY/WX   TEMP    WIND        PRES    VSBY  WAVE
                          AIR SEA DIR/SP/G                  HT/PER
                          (F)     (DEG/KT/KT) (MB)    (MI)  (FT/S)
WAUKEGAN HARBOR            26     240/ 14/ 20   N/A
HARRISON CRIB              28     210/ 13/ 17   N/A
BURNHAM HARBOR             27     240/  7/ 10   N/A
CALUMET HARBOR             26     210/  8/ 11   N/A
MICHIGAN CITY              24     160/ 11/ 15   N/A
$$

ILZ025>027-034>036-040-047-049-050-058-095>099-311400-
WEST-CENTRAL ILLINOIS

CITY           SKY/WX    TMP DP  RH WIND       PRES   REMARKS
QUINCY         CLOUDY    30  21  69 SW8       30.29R WCI  22
$$

ILZ028>032-037-038-041>044-048-051>054-059>061-311400-
CENTRAL ILLINOIS

CITY           SKY/WX    TMP DP  RH WIND       PRES   REMARKS
DECATUR        MOCLDY    28  23  81 SW8       30.32R WCI  20
PEORIA         MOCLDY    26  20  77 SW7       30.29R WCI  18
SPRINGFIELD    MOCLDY    29  22  75 SW5       30.31S WCI  24
TAYLORVILLE    NOT AVBL
$$

ILZ033-039-045-046-055>057-062-063-311400-
EAST-CENTRAL ILLINOIS

CITY           SKY/WX    TMP DP  RH WIND       PRES   REMARKS
CHAMPAIGN      PTCLDY    26  21  81 S8        30.31S WCI  18
MATTOON        MOCLDY    27  20  75 S8        30.31F WCI  19
$$

ILZ079-100>102-311400-
SOUTHWEST ILLINOIS

CITY           SKY/WX    TMP DP  RH WIND       PRES   REMARKS
ALTON          CLOUDY    27  21  80 S7        30.34R WCI  19
BELLEVILLE     PTCLDY    26  24  90 S1        30.35R
CAHOKIA*       PTCLDY    29  23  78 CALM      30.35R
$$

ILZ064>066-069>071-074>076-080>082-084>086-088>090-092>094-311400-
SOUTH-CENTRAL ILLINOIS

CITY           SKY/WX    TMP DP  RH WIND       PRES   REMARKS
CARBONDALE     MOCLDY    27  23  85 S3        30.37S
MARION         CLOUDY    30  23  74 SE6       30.38S WCI  24
MT. VERNON     MOCLDY    25  18  74 CALM      30.37R
$$

ILZ067-068-072-073-078-083-087-091-311400-
SOUTHEAST ILLINOIS

CITY           SKY/WX    TMP DP  RH WIND       PRES   REMARKS
LAWRENCEVILLE  MOCLDY    24  21  88 CALM      30.38R
$$

ABBREVIATIONS USED IN REMARKS
   TC - TEMPERATURE IN CELSIUS
  WCI - WIND CHILL INDEX
   HX - HEAT INDEX
  VSB - VISIBILITY
$$




USA.gov is the U.S. government's official web portal to all federal, state and local government web resources and services.